Location: Unspecified
(0.0000°N, 0.0000°E)
Time: 05:39:27
(UTC+00:00)

KAITUO 1B - Pass Details

Date: 04 July 2020
Orbit: 493 x 515 km, 97.4° (Epoch: 13 August)

Event Time Altitude Azimuth Distance (km) Brightness Sun altitude
Rises 05:16:08 0° 39° (NE) 2,600 ? -11.1°
Reaches altitude 10° 05:18:48 10° 60° (ENE) 1,714 ? -10.5°
Maximum altitude 05:21:13 17° 101° (E) 1,341 ? -10.0°
Drops below altitude 10° 05:23:39 10° 143° (SE) 1,711 ? -9.4°
Sets 05:26:17 0° 163° (SSE) 2,593 ? -8.8°
